Content
SEND FEEDBACK

Daily
Averages
Monthly
Summary
United Kingdom

COLTISHALL, ENGLAND


Home > Europe > United Kingdom > England
Elevation: 61 feet     Latitude: 52 45N     Longitude: 001 21E

WEATHER
 
SELECT A DAY
Number of Records: 210,363;   Date Range: 7/1/96 - 9/1/14
 
SHARE

PRINT THIS DATA

[ ← Previous Day ]
WEATHER ALMANAC - SEPTEMBER 25, 2013
[ Next Day → ]
[ °C ]   °F
Weather ElementAverageHighLow
Temperature60.1 °F66.2 °F (12:20 pm)55.4 °F (4:20 am)
Dewpoint55.4 °F57.2 °F (12:50 am)53.6 °F (10:20 am)
Humidity85.8 %100 % (12:50 am)64 % (12:20 pm)
Barometer29.88 in29.95 in (12:50 am)29.83 in (1:50 pm)
Wind Speed3.1 mph6.9 mph (3:50 pm)
Weather ElementAverage
Visibility3.5 mi
Wind DirectionESE (98.2 °)

Weather ElementTotal
Precipitation---
Heating Degree Days4.2 (Base 65)
Growing Degree Days10.8 (Base 50)
Averaged from 44 records on September 25, 2013
WEATHER CONDITIONS BREAKOUT
WIND DIRECTION BREAKOUT
WEATHER BY HOUR - SEPTEMBER 25, 2013
[ °C ]   °F
Local TimeTemperatureDewpointHumidityBarometerVisibilityWind DirectionWind SpeedGust SpeedPrecipitationEventsConditions
12:50 AM57.2 °F57.2 °F100 %29.95 in1.7 miVariable1.2 mphOvercast
1:20 AM57.2 °F57.2 °F100 %29.95 in1.9 miVariable1.2 mphOvercast
1:50 AM57.2 °F57.2 °F100 %29.92 inCalmOvercast
2:20 AM57.2 °F57.2 °F100 %29.92 inCalmOvercast
2:50 AM57.2 °F57.2 °F100 %29.92 inSouth (170°)1.2 mphOvercast
3:20 AM57.2 °F57.2 °F100 %29.92 in2.2 miCalmOvercast
3:50 AM57.2 °F57.2 °F100 %29.92 in1.5 miEast (90°)3.5 mphOvercast
4:20 AM55.4 °F55.4 °F100 %29.89 in1.5 miESE (110°)4.6 mphOvercast
4:50 AM57.2 °F57.2 °F100 %29.89 inSSE (160°)3.5 mphOvercast
5:20 AM57.2 °F57.2 °F100 %29.89 inVariable1.2 mphOvercast
5:50 AM57.2 °F57.2 °F100 %29.89 in2.2 miCalmMostly Cloudy
6:20 AM55.4 °F55.4 °F100 %29.89 in2.2 miSSE (150°)3.5 mphScattered Clouds
6:50 AM55.4 °F55.4 °F100 %29.89 in2.2 miSSW (210°)3.5 mphScattered Clouds
7:20 AM55.4 °F55.4 °F100 %29.89 in2.5 miSouth (180°)2.3 mphScattered Clouds
7:50 AM57.2 °F57.2 °F100 %29.89 in2.5 miSSW (210°)2.3 mphPartly Cloudy
8:20 AM57.2 °F55.4 °F94 %29.89 in1.9 miVariable1.2 mphMist
8:50 AM57.2 °F57.2 °F100 %29.89 in1.9 miWNW (300°)1.2 mphMist
9:20 AM59.0 °F57.2 °F94 %29.89 in1.9 miVariable2.3 mphMist
10:20 AM64.4 °F53.6 °F68 %29.86 in5.0 miVariable3.5 mph
10:50 AM64.4 °F53.6 °F68 %29.86 in5.0 miVariable3.5 mph
11:20 AM64.4 °F53.6 °F68 %29.86 in5.6 miVariable2.3 mph
11:50 AM64.4 °F53.6 °F68 %29.86 in5.6 miSouth (170°)4.6 mph
12:20 PM66.2 °F53.6 °F64 %29.86 in5.6 miVariable3.5 mph
12:50 PM64.4 °F53.6 °F68 %29.86 in5.6 miVariable2.3 mphPartly Cloudy
1:20 PM66.2 °F53.6 °F64 %29.86 in5.6 miVariable2.3 mph
1:50 PM66.2 °F53.6 °F64 %29.83 in5.6 miVariable1.2 mph
2:20 PM66.2 °F53.6 °F64 %29.83 in5.6 miVariable3.5 mph
2:50 PM66.2 °F53.6 °F64 %29.83 in5.6 miNorth (10°)5.8 mphScattered Clouds
3:20 PM66.2 °F53.6 °F64 %29.83 in5.6 miNorth (10°)5.8 mphScattered Clouds
3:50 PM64.4 °F57.2 °F77 %29.83 in5.6 miNE (40°)6.9 mphScattered Clouds
4:20 PM64.4 °F55.4 °F73 %29.83 in4.3 miVariable3.5 mphScattered Clouds
4:50 PM64.4 °F55.4 °F73 %29.83 in4.3 miNorth (10°)4.6 mphScattered Clouds
5:20 PM62.6 °F55.4 °F77 %29.83 in4.3 miNE (40°)4.6 mphScattered Clouds
5:50 PM62.6 °F55.4 °F77 %29.86 in3.7 miNNE (30°)5.8 mphScattered Clouds
6:20 PM60.8 °F55.4 °F82 %29.86 in3.7 miNorth (10°)4.6 mphPartly Cloudy
6:50 PM59.0 °F53.6 °F82 %29.86 in3.7 miNorth (360°)4.6 mphPartly Cloudy
7:50 PM59.0 °F53.6 °F82 %29.86 in3.1 miNorth (360°)2.3 mphHaze
8:20 PM59.0 °F55.4 °F88 %29.89 in3.1 miVariable1.2 mphHaze
8:50 PM59.0 °F55.4 °F88 %29.89 in2.5 miVariable2.3 mphHaze
9:20 PM59.0 °F55.4 °F88 %29.89 in2.5 miNorth (350°)4.6 mphHaze
10:20 PM57.2 °F55.4 °F94 %29.92 in2.2 miNW (320°)4.6 mphHaze
10:50 PM57.2 °F55.4 °F94 %29.92 inNorth (350°)5.8 mphHaze
11:20 PM57.2 °F55.4 °F94 %29.92 inNNW (340°)4.6 mphOvercast
11:50 PM57.2 °F55.4 °F94 %29.92 in1.5 miNNW (340°)4.6 mphDrizzle
Hourly data recorded from EGSH, located miles away from Coltishall, England







STORIES FROM OUR PARTNERS